[[{"header":{"parameterUnit":"m.s-1","parameterCategory":1,"la1":30.2991,"la2":30.254,"lo1":-89.0895,"lo2":-89.0444,"dy":0.0017,"dx":0.0017,"nx":28,"ny":28,"refTime":"2023-09-17T09:00:00:Z","depth":0,"parameterNumber":2,"parameterNumberName":"U-component_of_WINDS"},"data":[0,0,0,0,0,0,0,0,0,0,0,0,0,0,0,0,0,0,0,0,0,0,0,0,0,0,0,0,0,0,0,0,0,0,0,0,0,0,0,0,0,0,0,0,0,0,0,0,0,0,0,0,0,0,0,0,0,0,-2.0929,-2.093,0,-2.1017,-2.1018,-2.1019,-2.0958,-2.0955,-2.0952,-2.0949,-2.104,-2.1045,-2.105,0,0,0,0,0,0,0,0,0,0,0,0,0,-2.0708,-2.0712,-2.0929,-2.093,-2.0931,-2.1017,-2.1018,-2.1019,-2.0958,-2.0955,-2.0951,-2.0948,-2.1038,-2.1044,-2.105,0,0,0,0,0,0,0,0,0,0,0,0,0,-2.0801,-2.0714,-2.0928,-2.0911,-2.091,-2.1016,-2.1018,-2.1019,-2.0959,-2.0955,-2.0951,-2.0947,-2.1036,-2.1043,-2.1051,-2.1179,0,0,-2.1074,-2.1077,0,0,0,0,0,0,0,0,-2.0796,-2.0809,-2.0912,-2.0912,-2.0912,-2.0972,-2.0973,-2.1073,-2.096,-2.094,-2.0949,-2.0945,-2.1021,-2.1029,-2.1055,-2.1184,-2.1187,-2.1074,-2.1079,-2.1082,-2.1084,0,0,0,0,0,0,0,-2.0789,-2.0805,-2.0963,-2.0914,-2.0914,-2.0899,-2.0907,-2.0992,-2.1003,-2.0942,-2.0937,-2.0949,-2.102,-2.1048,-2.1056,-2.1189,-2.1074,-2.1081,-2.1085,-2.1088,-2.1428,-2.1432,0,0,0,0,0,0,-2.0784,-2.08,-2.0961,-2.0966,-2.0842,-2.0906,-2.0915,-2.0957,-2.1001,-2.1004,-2.0952,-2.0946,-2.1037,-2.1048,-2.1059,-2.1213,-2.1082,-2.1089,-2.1093,-2.1424,-2.1429,-2.1434,0,0,0,0,0,0,-2.078,-2.0799,-2.0957,-2.0882,-2.0901,-2.0914,-2.0961,-2.0961,-2.0989,-2.1009,-2.1011,-2.0979,-2.1034,-2.1049,-2.115,-2.1215,-2.1092,-2.1099,-2.1418,-2.1425,-2.1432,-2.1522,0,0,0,0,0,0,-2.0774,-2.0798,-2.0847,-2.0883,-2.0905,-2.1047,-2.0965,-2.0965,-2.1002,-2.0994,-2.1035,-2.1038,-2.1032,-2.1139,-2.1157,-2.1223,-2.1105,-2.1412,-2.1421,-2.1429,-2.1513,-2.1531,-2.1546,0,0,0,0,0,-2.0766,-2.0869,-2.085,-2.087,-2.0967,-2.1051,-2.1063,-2.1054,-2.1007,-2.1057,-2.107,-2.1036,-2.1205,-2.115,-2.117,-2.1239,-2.1408,-2.1419,-2.1429,-2.1506,-2.1527,-2.1546,0,0,0,0,0,0,-2.084,-2.0873,-2.0852,-2.097,-2.1008,-2.104,-2.1102,-2.1078,-2.113,-2.112,-2.1107,-2.1117,-2.1223,-2.1241,-2.1179,-2.1366,-2.1299,-2.1314,-2.1351,-2.1372,-2.1388,-2.1382,-2.1111,0,0,0,0,0,-2.0869,-2.0935,-2.0961,-2.1062,-2.1082,-2.1089,-2.1125,-2.1115,-2.1154,-2.117,-2.1191,-2.123,-2.1291,-2.1332,-2.139,-2.1515,-2.1523,-2.1573,-2.1589,-2.1603,-2.1616,-2.1684,-2.1706,-2.1468,-2.1468,-2.1467,0,0,-2.0932,-2.0958,-2.1,-2.1077,-2.1106,-2.1174,-2.1103,-2.1178,-2.1229,-2.1181,-2.1278,-2.1295,-2.1338,-2.1451,-2.1503,-2.147,-2.1683,-2.1616,-2.1626,-2.1632,-2.1696,-2.1719,-2.1739,-2.1475,-2.1473,-2.1472,0,0,-2.1081,-2.1107,-2.1195,-2.1225,-2.1268,-2.1272,-2.1293,-2.1329,-2.1339,-2.1436,-2.1402,-2.1462,-2.1568,-2.16,-2.1631,-2.1792,-2.1763,-2.1811,-2.1898,-2.1964,-2.1983,-2.1999,-2.2058,-2.2079,-2.1824,-2.1824,-2.1824,0,-2.1153,-2.1254,-2.1243,-2.1321,-2.1356,-2.1316,-2.1405,-2.1434,-2.1495,-2.152,-2.1482,-2.1615,-2.1641,-2.1762,-2.1802,-2.1827,-2.1851,-2.1807,-2.1981,-2.1998,-2.2013,-2.2068,-2.209,-2.183,-2.1829,-2.1829,-2.1828,0,-2.1341,-2.1412,-2.1478,-2.1537,-2.158,-2.1663,-2.1664,-2.1708,-2.1695,-2.1703,-2.1802,-2.1832,-2.1895,-2.1923,-2.1911,-2.2043,-2.2021,-2.1983,-2.1915,-2.2041,-2.2093,-2.2114,-2.1838,-2.1836,-2.1834,-2.1833,0,0,-2.1539,-2.1591,-2.1616,-2.1643,-2.1688,-2.1743,-2.1824,-2.1886,-2.1925,-2.1968,-2.2036,-2.2127,-2.2092,-2.2126,-2.2116,-2.2175,-2.2301,-2.2129,-2.213,-2.216,-2.2449,-2.2479,-2.2503,-2.2282,-2.2286,-2.2289,-2.2446,0,-2.1691,-2.1833,-2.1825,-2.1958,-2.2024,-2.1987,-2.2058,-2.2093,-2.2103,-2.216,-2.2171,-2.2236,-2.2184,-2.2205,-2.2261,-2.2274,-2.2359,-2.2263,-2.2346,-2.2349,-2.2337,-2.253,-2.2561,-2.2708,-2.2466,-2.2469,-2.2472,0,-2.1887,-2.1937,-2.2077,-2.2113,-2.214,-2.2204,-2.2261,-2.2316,-2.2355,-2.2358,-2.2397,-2.2378,-2.246,-2.239,-2.2504,-2.2438,-2.2472,-2.2484,-2.2489,-2.2497,-2.2419,-2.2544,-2.2754,-2.2776,-2.2504,-2.2501,-2.2499,0,-2.2018,-2.212,-2.2217,-2.2241,-2.2286,-2.2331,-2.2352,-2.2388,-2.2426,-2.2475,-2.25,-2.2558,-2.259,-2.2636,-2.2633,-2.2582,-2.2749,-2.2678,-2.2754,-2.2754,-2.2791,-2.2789,-2.301,-2.2812,-2.2811,-2.2811,-2.281,0,-2.2189,-2.2276,-2.2277,-2.2337,-2.2433,-2.2424,-2.2519,-2.2535,-2.2567,-2.2629,-2.2601,-2.266,-2.2653,-2.2712,-2.2711,-2.2805,-2.282,-2.2824,-2.2823,-2.2827,-2.2827,-2.2849,-2.2839,-2.2817,-2.2815,-2.2814,-2.2813,0,-2.2351,-2.2356,-2.2459,-2.2493,-2.2503,-2.2573,-2.2602,-2.2659,-2.2666,-2.2745,-2.2763,-2.2775,-2.2843,-2.2845,-2.2923,-2.2922,-2.3038,-2.3025,-2.3025,-2.3022,-2.3098,-2.3091,-2.3342,-2.3374,-2.3155,-2.3157,-2.3158,0,-2.246,-2.2527,-2.2567,-2.2607,-2.2631,-2.2695,-2.2734,-2.2727,-2.2768,-2.2819,-2.287,-2.2935,-2.2988,-2.3099,-2.3114,-2.3174,-2.3163,-2.3246,-2.3171,-2.3174,-2.3164,-2.3161,-2.3167,-2.3261,-2.3264,-2.3266,-2.3267,0,-2.2653,-2.2652,-2.2709,-2.2768,-2.2815,-2.286,-2.2902,-2.2937,-2.2934,-2.2982,-2.3052,-2.3093,-2.3173,-2.3239,-2.3297,-2.3318,-2.3293,-2.3291,-2.3311,-2.3317,-2.3314,-2.3317,-2.3065,-2.3285,-2.3283,-2.3282,-2.3281,-2.328,-2.2793,-2.285,-2.2888,-2.2953,-2.2984,-2.3024,-2.3079,-2.3093,-2.3151,-2.3216,-2.3209,-2.3286,-2.3324,-2.34,-2.3426,-2.3487,-2.3458,-2.3488,-2.3495,-2.3503,-2.3511,-2.3304,-2.3497,-2.3497,-2.3496,-2.3496,-2.3496,0,-2.2984,-2.3007,-2.3067,-2.3127,-2.3178,-2.315,-2.3195,-2.3239,-2.3308,-2.3346,-2.3398,-2.3479,-2.3542,-2.3563,-2.3625,-2.3669,-2.3659,-2.3686,-2.3683,-2.3688,-2.3534,-2.351,-2.3693,-2.3693,-2.3693,-2.3693,-2.3693,-2.3693,-2.309,-2.3186,-2.319,-2.3301,-2.3322,-2.3399,-2.3427,-2.3464,-2.3494,-2.3585,-2.3638,-2.3651,-2.3682,-2.3746,-2.3804,-2.3808,-2.3832,-2.3864,-2.3863,-2.3719,-2.3699,-2.368,-2.3657,-2.3869,-2.3869,-2.4013,-2.4014,-2.4015]},{"header":{"parameterUnit":"m.s-1","parameterCategory":1,"la1":30.2991,"la2":30.254,"lo1":-89.0895,"lo2":-89.0444,"dy":0.0017,"dx":0.0017,"nx":28,"ny":28,"refTime":"2023-09-17T09:00:00:Z","depth":0,"parameterNumber":3,"parameterNumberName":"V-component_of_WINDS"},"data":[0,0,0,0,0,0,0,0,0,0,0,0,0,0,0,0,0,0,0,0,0,0,0,0,0,0,0,0,0,0,0,0,0,0,0,0,0,0,0,0,0,0,0,0,0,0,0,0,0,0,0,0,0,0,0,0,0,0,-3.3378,-3.3379,0,-3.3418,-3.3419,-3.3419,-3.3352,-3.335,-3.3348,-3.3346,-3.3384,-3.3387,-3.339,0,0,0,0,0,0,0,0,0,0,0,0,0,-3.3241,-3.3244,-3.3378,-3.3379,-3.3379,-3.3418,-3.3419,-3.3419,-3.3353,-3.335,-3.3347,-3.3345,-3.3383,-3.3386,-3.339,0,0,0,0,0,0,0,0,0,0,0,0,0,-3.3293,-3.3245,-3.3378,-3.3351,-3.3349,-3.3418,-3.3419,-3.3419,-3.3353,-3.335,-3.3346,-3.3343,-3.3381,-3.3386,-3.3391,-3.3488,0,0,-3.3405,-3.3407,0,0,0,0,0,0,0,0,-3.329,-3.3298,-3.3354,-3.3353,-3.3351,-3.3377,-3.3384,-3.3442,-3.3354,-3.3352,-3.3346,-3.3342,-3.3384,-3.3388,-3.3403,-3.3489,-3.3491,-3.3405,-3.3408,-3.341,-3.3411,0,0,0,0,0,0,0,-3.3286,-3.3296,-3.3394,-3.3355,-3.3353,-3.3335,-3.3339,-3.3395,-3.3386,-3.3351,-3.3347,-3.3353,-3.3382,-3.3399,-3.3403,-3.3492,-3.3405,-3.3409,-3.3412,-3.3414,-3.3659,-3.3662,0,0,0,0,0,0,-3.3287,-3.3293,-3.3393,-3.3395,-3.3311,-3.3341,-3.3345,-3.3372,-3.3385,-3.3384,-3.3355,-3.3349,-3.3392,-3.3398,-3.3405,-3.3519,-3.341,-3.3415,-3.3417,-3.3655,-3.3659,-3.3663,0,0,0,0,0,0,-3.3284,-3.3296,-3.3391,-3.3343,-3.3354,-3.3347,-3.3378,-3.3374,-3.3391,-3.3388,-3.3386,-3.3374,-3.339,-3.3398,-3.3467,-3.3519,-3.3417,-3.3421,-3.3651,-3.3656,-3.3661,-3.3748,0,0,0,0,0,0,-3.328,-3.3296,-3.3333,-3.3344,-3.3357,-3.3455,-3.3381,-3.3378,-3.3399,-3.3392,-3.3405,-3.3404,-3.3388,-3.3461,-3.3472,-3.3524,-3.3425,-3.3646,-3.3653,-3.366,-3.3741,-3.3756,-3.3769,0,0,0,0,0,-3.3276,-3.3355,-3.3335,-3.3348,-3.3404,-3.3458,-3.3465,-3.3445,-3.3404,-3.3441,-3.3439,-3.3404,-3.3512,-3.3469,-3.3481,-3.3534,-3.3643,-3.3651,-3.3659,-3.3734,-3.3753,-3.3769,0,0,0,0,0,0,-3.3349,-3.3356,-3.3334,-3.342,-3.3439,-3.3446,-3.3493,-3.3465,-3.3495,-3.3487,-3.346,-3.3464,-3.3539,-3.3543,-3.3495,-3.3629,-3.357,-3.3581,-3.3623,-3.3641,-3.3655,-3.3652,-3.3428,0,0,0,0,0,-3.3376,-3.342,-3.3423,-3.3499,-3.351,-3.35,-3.3523,-3.3506,-3.3524,-3.3531,-3.3535,-3.3553,-3.359,-3.3616,-3.365,-3.3741,-3.3742,-3.3784,-3.3798,-3.381,-3.3819,-3.3867,-3.3885,-3.3691,-3.3691,-3.369,0,0,-3.343,-3.344,-3.3469,-3.3514,-3.3527,-3.3572,-3.3507,-3.3558,-3.3591,-3.3539,-3.3605,-3.3608,-3.3626,-3.3707,-3.3742,-3.3713,-3.3874,-3.382,-3.383,-3.3833,-3.3877,-3.3896,-3.3912,-3.3696,-3.3695,-3.3694,0,0,-3.3553,-3.3565,-3.363,-3.3644,-3.3664,-3.3657,-3.3672,-3.3684,-3.3685,-3.3751,-3.3712,-3.3751,-3.3816,-3.3831,-3.3847,-3.3976,-3.3944,-3.3988,-3.4062,-3.4108,-3.4124,-3.4137,-3.4182,-3.4199,-3.3997,-3.3998,-3.3998,0,-3.3618,-3.3687,-3.3666,-3.372,-3.374,-3.3696,-3.376,-3.3774,-3.3804,-3.3819,-3.3786,-3.3868,-3.3877,-3.396,-3.3991,-3.4006,-3.4022,-3.3986,-3.4123,-3.4137,-3.4149,-3.4192,-3.4209,-3.4003,-3.4002,-3.4002,-3.4001,0,-3.3766,-3.3814,-3.3863,-3.3894,-3.392,-3.3979,-3.3966,-3.3994,-3.3975,-3.3972,-3.4039,-3.4048,-3.4084,-3.4103,-3.4084,-3.4183,-3.4164,-3.4128,-3.4068,-3.4173,-3.4213,-3.4229,-3.401,-3.4008,-3.4007,-3.4005,0,0,-3.3936,-3.3955,-3.3974,-3.3987,-3.4006,-3.4042,-3.4099,-3.4135,-3.416,-3.4182,-3.4228,-3.4285,-3.4251,-3.4269,-3.4252,-3.4293,-3.4394,-3.4252,-3.4252,-3.4278,-3.4503,-3.453,-3.4549,-3.4373,-3.4376,-3.4379,-3.4501,0,-3.4058,-3.4156,-3.4139,-3.4234,-3.4278,-3.4236,-3.4285,-3.4302,-3.43,-3.4335,-3.4332,-3.4373,-3.4326,-3.4337,-3.4376,-3.4374,-3.4439,-3.4365,-3.4415,-3.4417,-3.4411,-3.457,-3.4599,-3.4714,-3.4517,-3.4519,-3.4521,0,-3.4213,-3.4243,-3.4343,-3.4355,-3.4373,-3.4417,-3.4448,-3.4484,-3.4501,-3.4496,-3.4517,-3.4492,-3.4547,-3.4488,-3.4563,-3.4513,-3.4532,-3.4534,-3.4538,-3.4542,-3.4475,-3.4578,-3.475,-3.4768,-3.4546,-3.4544,-3.4542,0,-3.4327,-3.4391,-3.4459,-3.4472,-3.4488,-3.4521,-3.4529,-3.4543,-3.4566,-3.4593,-3.4607,-3.464,-3.4658,-3.4683,-3.4667,-3.4626,-3.4745,-3.4684,-3.4742,-3.4742,-3.4768,-3.4767,-3.4946,-3.4782,-3.4782,-3.4781,-3.4781,0,-3.4465,-3.4527,-3.451,-3.4552,-3.4621,-3.46,-3.4668,-3.4671,-3.4684,-3.4725,-3.4691,-3.473,-3.4707,-3.4744,-3.4731,-3.4795,-3.4803,-3.4801,-3.4797,-3.4804,-3.4804,-3.4815,-3.4807,-3.4786,-3.4785,-3.4784,-3.4783,0,-3.4603,-3.4594,-3.4666,-3.4675,-3.4679,-3.473,-3.4737,-3.4776,-3.4771,-3.4823,-3.4834,-3.4827,-3.4869,-3.4856,-3.49,-3.4892,-3.4972,-3.4958,-3.4967,-3.4963,-3.5022,-3.5016,-3.5214,-3.5239,-3.506,-3.5061,-3.5063,0,-3.4691,-3.4738,-3.4754,-3.4779,-3.479,-3.4832,-3.4855,-3.4836,-3.4861,-3.4885,-3.492,-3.4959,-3.4989,-3.5057,-3.5055,-3.5089,-3.5075,-3.5142,-3.5079,-3.5085,-3.5075,-3.5072,-3.5077,-3.5154,-3.5156,-3.5158,-3.5159,0,-3.4848,-3.4842,-3.4877,-3.4912,-3.4941,-3.4966,-3.4989,-3.5011,-3.4993,-3.5024,-3.5066,-3.509,-3.5136,-3.5174,-3.5205,-3.5211,-3.5183,-3.5179,-3.5194,-3.5201,-3.5204,-3.5203,-3.5,-3.5174,-3.5173,-3.5172,-3.5171,-3.517,-3.4964,-3.5004,-3.5021,-3.5062,-3.5077,-3.5099,-3.5135,-3.5136,-3.5172,-3.5208,-3.5194,-3.5243,-3.5259,-3.5297,-3.5308,-3.5346,-3.532,-3.5342,-3.5347,-3.5353,-3.536,-3.5199,-3.5351,-3.5351,-3.535,-3.535,-3.535,0,-3.5119,-3.5128,-3.5166,-3.5199,-3.5231,-3.5202,-3.5225,-3.5253,-3.5297,-3.5315,-3.5345,-3.5394,-3.5431,-3.5433,-3.5467,-3.5497,-3.5484,-3.5506,-3.5504,-3.5506,-3.5381,-3.5365,-3.5516,-3.5516,-3.5516,-3.5516,-3.5516,-3.5516,-3.5203,-3.5269,-3.5265,-3.5338,-3.5347,-3.5395,-3.5411,-3.5431,-3.5445,-3.5501,-3.5533,-3.5534,-3.5545,-3.558,-3.5612,-3.5612,-3.5626,-3.5653,-3.5647,-3.5531,-3.5514,-3.5499,-3.5483,-3.5656,-3.5657,-3.5768,-3.5769,-3.577]}]]